Tiempo cada hora Ceglarki

Hoy, 20 Abril, Martes

Tiempo Temperatura Precipitaciones Viento Presión Humedad
00:00 +8°C° 0 mm 2 mps 758 mmHg 80%
01:00 +8°C° 0 mm 2 mps 758 mmHg 83%
02:00 +7°C° 0 mm 2 mps 758 mmHg 84%
03:00 +7°C° 0 mm 2 mps 757 mmHg 85%
04:00 +7°C° 0 mm 2 mps 757 mmHg 86%
05:00 +9°C° 0 mm 1 mps 757 mmHg 82%
06:00 +10°C° 0 mm 1 mps 757 mmHg 78%
07:00 +11°C° 0 mm 1 mps 757 mmHg 74%
08:00 +12°C° 0 mm 1 mps 757 mmHg 68%
09:00 +13°C° 0 mm 2 mps 757 mmHg 63%
10:00 +15°C° 0 mm 2 mps 756 mmHg 57%
11:00 +15°C° 0 mm 2 mps 756 mmHg 54%
12:00 +16°C° 0 mm 2 mps 756 mmHg 50%
13:00 +16°C° 0 mm 2 mps 755 mmHg 47%
14:00 +16°C° 0 mm 2 mps 755 mmHg 51%
15:00 +14°C° 0 mm 3 mps 755 mmHg 55%
16:00 +14°C° 0 mm 3 mps 754 mmHg 59%
17:00 +12°C° 0 mm 3 mps 754 mmHg 66%
18:00 +12°C° 0 mm 2 mps 754 mmHg 73%
19:00 +9°C° 0 mm 2 mps 754 mmHg 79%
20:00 +8°C° 0 mm 2 mps 754 mmHg 80%
21:00 +8°C° 0 mm 2 mps 754 mmHg 81%
22:00 +8°C° 0 mm 1 mps 754 mmHg 82%
23:00 +8°C° 0 mm 1 mps 754 mmHg 81%

Mañana, 21 Abril, Miércoles

Tiempo Temperatura Precipitaciones Viento Presión Humedad
00:00 +7°C° 0 mm 1 mps 754 mmHg 81%
01:00 +7°C° 0 mm 1 mps 754 mmHg 80%
02:00 +7°C° 0 mm 1 mps 753 mmHg 80%
03:00 +6°C° 0 mm 1 mps 753 mmHg 80%
04:00 +6°C° 0 mm 1 mps 753 mmHg 80%
05:00 +6°C° 0 mm 2 mps 753 mmHg 76%
06:00 +8°C° 0 mm 2 mps 753 mmHg 72%
07:00 +9°C° 0 mm 2 mps 753 mmHg 69%
08:00 +10°C° 0 mm 2 mps 753 mmHg 64%
09:00 +13°C° 0 mm 2 mps 752 mmHg 60%
10:00 +14°C° 0 mm 2 mps 752 mmHg 55%
11:00 +13°C° 0 mm 3 mps 752 mmHg 53%
12:00 +14°C° 0 mm 4 mps 752 mmHg 50%
13:00 +14°C° 0 mm 4 mps 752 mmHg 48%
14:00 +14°C° 0 mm 4 mps 751 mmHg 50%
15:00 +13°C° 0 mm 4 mps 751 mmHg 52%
16:00 +13°C° 0 mm 3 mps 751 mmHg 54%
17:00 +11°C° 0 mm 3 mps 751 mmHg 61%
18:00 +10°C° 0 mm 3 mps 751 mmHg 68%
19:00 +8°C° 0 mm 2 mps 751 mmHg 75%
20:00 +8°C° 0.3 mm 2 mps 751 mmHg 79%
21:00 +7°C° 0.3 mm 2 mps 751 mmHg 83%
22:00 +7°C° 0.3 mm 2 mps 751 mmHg 87%
23:00 +6°C° 0.4 mm 2 mps 751 mmHg 89%

Pasado mañana, 22 Abril, Jueves

Tiempo Temperatura Precipitaciones Viento Presión Humedad
00:00 +5°C° 0.4 mm 3 mps 751 mmHg 91%
01:00 +4°C° 0.4 mm 4 mps 751 mmHg 93%
02:00 +4°C° 0.5 mm 4 mps 751 mmHg 91%
03:00 +3°C° 0.5 mm 4 mps 751 mmHg 89%
04:00 +2°C° 0.5 mm 5 mps 751 mmHg 87%
05:00 +2°C° 0 mm 5 mps 751 mmHg 85%
06:00 +2°C° 0 mm 6 mps 751 mmHg 82%
07:00 +2°C° 0 mm 7 mps 752 mmHg 80%
08:00 +3°C° 0 mm 7 mps 752 mmHg 75%
09:00 +4°C° 0 mm 7 mps 752 mmHg 70%
10:00 +5°C° 0 mm 8 mps 752 mmHg 65%
11:00 +5°C° 0.1 mm 8 mps 752 mmHg 61%
12:00 +6°C° 0.1 mm 8 mps 752 mmHg 56%
13:00 +6°C° 0.1 mm 8 mps 752 mmHg 52%
14:00 +6°C° 0 mm 7 mps 752 mmHg 52%
15:00 +5°C° 0 mm 7 mps 752 mmHg 53%
16:00 +5°C° 0 mm 6 mps 753 mmHg 53%
17:00 +5°C° 0 mm 5 mps 753 mmHg 58%
18:00 +3°C° 0 mm 4 mps 753 mmHg 63%
19:00 +2°C° 0 mm 3 mps 753 mmHg 67%
20:00 +1°C° 0 mm 4 mps 753 mmHg 68%
21:00 +1°C° 0 mm 4 mps 753 mmHg 69%
22:00 +1°C° 0 mm 5 mps 753 mmHg 70%
23:00 0°C° 0 mm 5 mps 753 mmHg 71%

23 Abril, Viernes

Tiempo Temperatura Precipitaciones Viento Presión Humedad
00:00 0°C° 0 mm 5 mps 753 mmHg 72%
01:00 0°C° 0 mm 5 mps 753 mmHg 74%
02:00 0°C° 0 mm 5 mps 753 mmHg 76%
03:00 0°C° 0 mm 5 mps 753 mmHg 78%
04:00 0°C° 0 mm 5 mps 753 mmHg 80%
05:00 +1°C° 0.1 mm 6 mps 754 mmHg 77%
06:00 +1°C° 0.1 mm 6 mps 754 mmHg 73%
07:00 +2°C° 0.1 mm 6 mps 754 mmHg 70%
08:00 +2°C° 0.2 mm 7 mps 754 mmHg 66%
09:00 +3°C° 0.2 mm 7 mps 755 mmHg 61%
10:00 +3°C° 0.2 mm 7 mps 755 mmHg 57%
11:00 +4°C° 0.2 mm 7 mps 755 mmHg 56%
12:00 +4°C° 0.2 mm 8 mps 755 mmHg 54%
13:00 +4°C° 0.2 mm 8 mps 756 mmHg 53%
14:00 +4°C° 0 mm 8 mps 756 mmHg 54%
15:00 +3°C° 0 mm 7 mps 756 mmHg 56%
16:00 +3°C° 0 mm 7 mps 757 mmHg 58%
17:00 +2°C° 0 mm 6 mps 757 mmHg 62%
18:00 +1°C° 0 mm 5 mps 758 mmHg 66%
19:00 0°C° 0 mm 4 mps 758 mmHg 71%
20:00 0°C° 0 mm 5 mps 758 mmHg 70%
21:00 0°C° 0 mm 5 mps 758 mmHg 70%
22:00 0°C° 0 mm 5 mps 757 mmHg 70%
23:00 -1°C° 0 mm 5 mps 757 mmHg 69%

24 Abril, Sábado

Tiempo Temperatura Precipitaciones Viento Presión Humedad
00:00 -1°C° 0 mm 5 mps 757 mmHg 69%
01:00 -1°C° 0 mm 5 mps 757 mmHg 68%
02:00 0°C° 0 mm 5 mps 757 mmHg 69%
03:00 0°C° 0 mm 5 mps 756 mmHg 70%
04:00 +1°C° 0 mm 5 mps 756 mmHg 70%
05:00 +1°C° 0 mm 5 mps 756 mmHg 70%
06:00 +2°C° 0 mm 6 mps 756 mmHg 70%
07:00 +3°C° 0 mm 6 mps 757 mmHg 69%
08:00 +3°C° 0.1 mm 7 mps 757 mmHg 62%
09:00 +4°C° 0.1 mm 7 mps 757 mmHg 55%
10:00 +5°C° 0.1 mm 7 mps 757 mmHg 47%
11:00 +5°C° 0 mm 7 mps 757 mmHg 46%
12:00 +5°C° 0 mm 8 mps 757 mmHg 44%
13:00 +5°C° 0 mm 8 mps 757 mmHg 43%
14:00 +4°C° 0 mm 7 mps 757 mmHg 45%
15:00 +4°C° 0 mm 7 mps 757 mmHg 48%
16:00 +3°C° 0 mm 7 mps 757 mmHg 50%
17:00 +2°C° 0 mm 6 mps 757 mmHg 57%
18:00 +1°C° 0 mm 5 mps 757 mmHg 63%
19:00 0°C° 0 mm 4 mps 757 mmHg 70%
20:00 0°C° 0 mm 3 mps 757 mmHg 72%
21:00 -1°C° 0 mm 3 mps 757 mmHg 74%
22:00 -2°C° 0 mm 2 mps 757 mmHg 77%
23:00 -2°C° 0 mm 3 mps 757 mmHg 76%

25 Abril, Domingo

Tiempo Temperatura Precipitaciones Viento Presión Humedad
00:00 -2°C° 0 mm 3 mps 757 mmHg 75%
01:00 -2°C° 0 mm 3 mps 757 mmHg 75%
02:00 -1°C° 0 mm 3 mps 756 mmHg 74%
03:00 -1°C° 0 mm 3 mps 756 mmHg 72%
04:00 -1°C° 0 mm 3 mps 756 mmHg 71%
05:00 -1°C° 0 mm 4 mps 756 mmHg 69%
06:00 +1°C° 0 mm 4 mps 755 mmHg 68%
07:00 +2°C° 0 mm 5 mps 755 mmHg 66%
08:00 +3°C° 0.2 mm 6 mps 755 mmHg 65%
09:00 +3°C° 0.2 mm 6 mps 755 mmHg 64%
10:00 +4°C° 0.2 mm 7 mps 756 mmHg 63%
11:00 +4°C° 0.3 mm 7 mps 756 mmHg 67%
12:00 +3°C° 0.3 mm 7 mps 756 mmHg 72%
13:00 +3°C° 0.3 mm 7 mps 756 mmHg 77%
14:00 +3°C° 0.2 mm 7 mps 756 mmHg 75%
15:00 +3°C° 0.2 mm 7 mps 756 mmHg 74%
16:00 +3°C° 0.2 mm 7 mps 756 mmHg 72%
17:00 +2°C° 0 mm 6 mps 756 mmHg 76%
18:00 +1°C° 0 mm 5 mps 756 mmHg 80%
19:00 -1°C° 0 mm 4 mps 757 mmHg 84%
20:00 -1°C° 0 mm 4 mps 757 mmHg 86%
21:00 -1°C° 0 mm 3 mps 757 mmHg 89%
22:00 -2°C° 0 mm 3 mps 757 mmHg 91%
23:00 -2°C° 0 mm 3 mps 756 mmHg 92%
Mostrar más

Necesitamos Su Consentimiento

Meteoprog y nuestros Proveedores de Servicios pueden almacenar y acceder a sus datos personales como cookies, identificadores de dispositivo u otras tecnologías similares de su dispositivo y procesar dichos datos para personalizar contenido y anuncios, además de ofrecer funciones de redes sociales y analizar el tráfico.

  • Almacenar y/o acceder a información en su dispositivo

    Se puede almacenar o acceder a cookies, identificadores de dispositivo u otra información de su dispositivo para los fines anteriormente indicados.

  • Anuncios y contenido personalizados, medición de anuncios y contenido, percepciones del público, y desarrollo de productos

    Los anuncios y el contenido pueden personalizarse en base a su perfil. Se pueden añadir más datos para personalizar mejor los anuncios y contenidos. Se puede medir el rendimiento de los anuncios y contenidos. Se puede obtener la percepción sobre el público que ha visto los anuncios y contenidos. Dichos datos pueden usarse para desarrollar o mejorar la experiencia del usuario, sistemas y software.

Al hacer clic en ‘Estoy De Acuerdo’ usted permitirá el uso de las cookies, identificadores de dispositivo, balizas web u otras tecnologías similares indicadas. Su configuración puede cambiarse desde el navegador de su dispositivo.

Para ciertos fines, los intereses legítimos pueden ser considerados por encima del consentimiento. Puede leer más sobre ello en nuestra Política de Privacidad y Cookies.